Location: Chinna Viriv?da
(16.5281°N, 81.0493°E)
Time: 14:47:11
(UTC+00:00)

Nadezhda 3 Rocket - Pass Details

Date: 14 April 2026
Orbit: 955 x 999 km, 82.9° (Epoch: 11 May)

Event Time Altitude Azimuth Distance (km) Brightness Sun altitude
Rises 14:22:53 0° 356° (N) 3,625 7.3 -22.2°
Reaches altitude 10° 14:25:22 10° 357° (N) 2,678 6.5 -22.7°
Maximum altitude 14:31:30 86° 86° (E) 960 3.8 -24.1°
Enters shadow 14:35:06 27° 174° (S) 1,763 5.1 -25.0°
